International Falls, MN

7:48 AM CDT on September 24, 2017 (GMT -0500)
Falls International

Weather History for KINL - December, 2011

Change the Weather History Date:

Thursday, December 29, 2011

  Actual Average Record
Temperature  
Mean Temperature 20 °F 6 °F  
Max Temperature 22 °F 16 °F 36 °F (1965)
Min Temperature 17 °F -5 °F -36 °F (1917)
Degree Days  
Heating Degree Days 45 60  
Month to date heating degree days 1333 1594  
Since 1 July heating degree days 3453 4055  
Cooling Degree Days 0 0  
Month to date cooling degree days 0 0  
Year to date cooling degree days 207 192  
Moisture  
Dew Point 16 °F    
Average Humidity 82    
Maximum Humidity 92    
Minimum Humidity 71    
Precipitation  
Precipitation T in 0.02 in 0.80 in (1895)
Month to date precipitation 0.39 0.76  
Year to date precipitation 19.61 24.17  
Snow  
Snow 0.20 in 0.50 in 3.40 in (1992)
Month to date snowfall 7.5 14.0  
Since 1 July snowfall 19.8 30.0  
Snow Depth 5.00 in    
Sea Level Pressure  
Sea Level Pressure 29.64 in    
Wind  
Wind Speed 4 mph (NNE)    
Max Wind Speed 7 mph    
Max Gust Speed 9 mph    
Visibility 9 miles    
Events Snow    
T = Trace of Precipitation, MM = Missing Value Source: NWS Daily Summary

Daily Weather History Graph

Daily Weather History Graph

Search for Another Location

Airport or City:

Trip Planner

Search our weather history database for the weather conditions in past years. The results will help you decide how hot, cold, wet, or windy it might be!

Date:

Astronomy

Dec. 29, 2011 Rise Set
Actual Time 8:05 AM CST 4:25 PM CST
Civil Twilight 7:28 AM CST 5:02 PM CST
Nautical Twilight 6:48 AM CST 5:42 PM CST
Astronomical Twilight 6:10 AM CST 6:20 PM CST
Moon 10:32 AM CST (12/29) 10:32 PM CST (12/29)
Length of Visible Light 9h 33m
Length of Day
8h 20m
Waxing Crescent, 27% of the Moon is Illuminated
Dec 29
Waxing Crescent
Jan 1
First Quarter
Jan 9
Full
Jan 16
Last Quarter
Jan 23
New

Hourly Weather History & Observations

Time (CST) Temp. Windchill Dew Point Humidity Pressure Visibility Wind Dir Wind Speed Gust Speed Precip Events Conditions
12:10 AM 21.2 °F 16.4 °F 19.4 °F 93% 29.52 in 2.5 mi NE 3.5 mph - 0.01 in Snow Light Snow
12:23 AM 21.2 °F - 19.4 °F 93% 29.52 in 3.0 mi Calm Calm - 0.01 in Snow Light Snow
12:55 AM 21.0 °F - 19.0 °F 92% 29.58 in 6.0 mi Calm Calm - 0.01 in Snow Light Snow
1:27 AM 21.2 °F - 19.4 °F 93% 29.52 in 10.0 mi Calm Calm - 0.00 in   Overcast
1:55 AM 21.0 °F 14.6 °F 19.0 °F 92% 29.58 in 10.0 mi ENE 4.6 mph - 0.00 in   Overcast
2:55 AM 21.0 °F 14.6 °F 18.0 °F 88% 29.59 in 10.0 mi NE 4.6 mph - N/A   Overcast
3:55 AM 19.9 °F 13.4 °F 18.0 °F 92% 29.59 in 10.0 mi NNE 4.6 mph - N/A   Overcast
4:10 AM 19.4 °F - 17.6 °F 93% 29.53 in 10.0 mi Calm Calm - N/A   Overcast
4:55 AM 19.9 °F 14.9 °F 18.0 °F 92% 29.60 in 10.0 mi NNW 3.5 mph - N/A   Overcast
5:35 AM 19.4 °F 12.8 °F 17.6 °F 93% 29.55 in 10.0 mi NNW 4.6 mph - N/A   Overcast
5:55 AM 19.9 °F 11.1 °F 18.0 °F 92% 29.62 in 10.0 mi NNW 6.9 mph - N/A   Overcast
6:55 AM 19.9 °F 12.1 °F 18.0 °F 92% 29.64 in 10.0 mi NNW 5.8 mph - N/A   Overcast
7:55 AM 21.0 °F 13.4 °F 17.1 °F 85% 29.64 in 10.0 mi NNW 5.8 mph - N/A   Overcast
8:55 AM 21.0 °F 14.6 °F 16.0 °F 81% 29.67 in 10.0 mi North 4.6 mph - N/A   Overcast
9:55 AM 21.0 °F 14.6 °F 15.1 °F 78% 29.66 in 10.0 mi NNE 4.6 mph - N/A   Overcast
10:55 AM 21.9 °F 15.7 °F 17.1 °F 82% 29.68 in 10.0 mi West 4.6 mph - N/A   Overcast
11:55 AM 21.9 °F 14.5 °F 16.0 °F 78% 29.67 in 10.0 mi West 5.8 mph - N/A   Overcast
12:55 PM 21.9 °F 14.5 °F 16.0 °F 78% 29.66 in 10.0 mi NW 5.8 mph - N/A   Overcast
1:55 PM 21.9 °F - 15.1 °F 75% 29.65 in 10.0 mi Calm Calm - N/A   Overcast
2:55 PM 21.0 °F 13.4 °F 15.1 °F 78% 29.68 in 10.0 mi North 5.8 mph - N/A   Overcast
3:55 PM 21.0 °F 14.6 °F 14.0 °F 74% 29.68 in 10.0 mi NNE 4.6 mph - N/A   Overcast
4:55 PM 19.9 °F - 12.9 °F 74% 29.72 in 10.0 mi Calm Calm - N/A   Overcast
5:55 PM 19.9 °F - 14.0 °F 78% 29.73 in 10.0 mi Calm Calm - N/A   Overcast
6:55 PM 19.9 °F - 15.1 °F 81% 29.73 in 10.0 mi Calm Calm - N/A   Overcast
7:34 PM 19.4 °F 14.3 °F 15.8 °F 86% 29.66 in 10.0 mi ESE 3.5 mph - N/A   Overcast
7:55 PM 19.0 °F 11.1 °F 16.0 °F 88% 29.73 in 10.0 mi East 5.8 mph - N/A   Overcast
8:55 PM 19.0 °F 13.9 °F 15.1 °F 85% 29.72 in 10.0 mi East 3.5 mph - N/A   Overcast
9:55 PM 18.0 °F 11.1 °F 15.1 °F 88% 29.71 in 10.0 mi East 4.6 mph - N/A   Overcast
10:55 PM 18.0 °F 9.8 °F 14.0 °F 84% 29.74 in 10.0 mi ESE 5.8 mph - N/A   Overcast
11:55 PM 17.1 °F 10.0 °F 14.0 °F 88% 29.74 in 10.0 mi East 4.6 mph - N/A   Overcast